Location: Azul
(36.7830°S, 59.8500°W)
Time: 02:55:05
(UTC-03:00)

ISS - Pass Details

Date: 21 October 2017
Orbit: 400 x 408 km, 51.6° (Epoch: 24 October)

Event Time Altitude Azimuth Distance (km) Brightness Sun altitude
Exits shadow 04:27:46 - 216° (SW) 1,682 -0.8 -19.2°
Reaches altitude 10° 04:28:17 10° 213° (SSW) 1,492 -1.0 -19.1°
Maximum altitude 04:31:21 33° 146° (SE) 711 -2.1 -18.6°
Drops below altitude 10° 04:34:25 10° 79° (ENE) 1,474 -0.3 -18.0°
Sets 04:36:36 0° 69° (ENE) 2,327 0.6 -17.6°
